Location: Santa Cristina
(46.5667°N, 11.7167°E)
Time: 06:51:39
(UTC+00:00)

X-37B - Pass Details

Date: 21 April 2021
Orbit: 386 x 389 km, 45.0° (Epoch: 08 May)

Event Time Altitude Azimuth Distance (km) Brightness Sun altitude
Exits shadow 02:01:06 35° 121° (ESE) 650 1.8 -20.4°
Drops below altitude 10° 02:03:19 10° 91° (E) 1,415 4.0 -20.1°
Sets 02:05:26 0° 85° (E) 2,270 5.3 -19.8°
